User: anonymous   Login
Location: Keeble Observatory
(37.7625°N, 77.4755°W)
Time: 10:04:19
(UTC-04:00)
Language:

Cosmos 1484 Rocket - Orbit

View from above orbital plane
View from above orbital plane
View from above satellite
View from above satellite

Ground track
Ground track

The orbit data is extracted from the following two-line orbital elements,

1 14208U 83075B   16176.83500036  .00000182  00000-0  14948-4 0  9995
2 14208  97.3542 195.9069 0038188 284.3189  75.3802 15.09966340793578
Epoch (UTC): 24 June 2016 20:02:24
Eccentricity: 0.0038188
inclination: 97.3542°
perigee height: 510 km
apogee height: 563 km
right ascension of ascending node: 195.9069°
argument of perigee: 284.3189°
revolutions per day: 15.09966340
mean anomaly at epoch: 75.3802°
orbit number at epoch: 79357

The dashed part of the orbit path shows where the satellite is in the earth's shadow,  

DLR